TimeEST,TemperatureF,Dew PointF,Humidity,Sea Level PressureIn,VisibilityMPH,Wind Direction,Wind SpeedMPH,Gust SpeedMPH,PrecipitationIn,Events,Conditions,WindDirDegrees,DateUTC
12:15 AM,39.2,30.2,70,30.22,10.0,Calm,Calm,-,N/A,,Clear,0,2012-11-10 05:15:00
12:35 AM,39.2,30.2,70,30.23,10.0,Calm,Calm,-,N/A,,Clear,0,2012-11-10 05:35:00
12:55 AM,39.2,30.2,70,30.23,10.0,Calm,Calm,-,N/A,,Clear,0,2012-11-10 05:55:00
1:15 AM,39.2,28.4,65,30.22,10.0,Calm,Calm,-,N/A,,Clear,0,2012-11-10 06:15:00
1:35 AM,37.4,28.4,70,30.23,10.0,Calm,Calm,-,N/A,,Clear,0,2012-11-10 06:35:00
1:55 AM,39.2,28.4,65,30.23,10.0,Calm,Calm,-,N/A,,Clear,0,2012-11-10 06:55:00
2:15 AM,37.4,28.4,70,30.24,10.0,Calm,Calm,-,N/A,,Clear,0,2012-11-10 07:15:00
2:35 AM,37.4,28.4,70,30.25,10.0,Calm,Calm,-,N/A,,Clear,0,2012-11-10 07:35:00
2:55 AM,37.4,28.4,70,30.25,10.0,Calm,Calm,-,N/A,,Clear,0,2012-11-10 07:55:00
3:15 AM,35.6,30.2,81,30.25,10.0,Calm,Calm,-,N/A,,Scattered Clouds,0,2012-11-10 08:15:00
3:35 AM,37.4,28.4,70,30.25,10.0,Calm,Calm,-,N/A,,Mostly Cloudy,0,2012-11-10 08:35:00
3:55 AM,39.2,28.4,65,30.25,10.0,Calm,Calm,-,N/A,,Partly Cloudy,0,2012-11-10 08:55:00
4:15 AM,39.2,28.4,65,30.26,10.0,Calm,Calm,-,N/A,,Clear,0,2012-11-10 09:15:00
4:35 AM,37.4,28.4,70,30.26,10.0,Calm,Calm,-,N/A,,Clear,0,2012-11-10 09:35:00
4:55 AM,37.4,28.4,70,30.27,10.0,Calm,Calm,-,N/A,,Clear,0,2012-11-10 09:55:00
5:15 AM,37.4,28.4,70,30.27,10.0,Calm,Calm,-,N/A,,Clear,0,2012-11-10 10:15:00
5:35 AM,37.4,28.4,70,30.28,10.0,Calm,Calm,-,N/A,,Clear,0,2012-11-10 10:35:00
5:55 AM,39.2,28.4,65,30.28,10.0,Calm,Calm,-,N/A,,Clear,0,2012-11-10 10:55:00
6:15 AM,37.4,30.2,75,30.28,10.0,SSE,4.6,-,N/A,,Clear,160,2012-11-10 11:15:00
6:35 AM,37.4,28.4,70,30.28,10.0,SSW,3.5,-,N/A,,Clear,200,2012-11-10 11:35:00
7:15 AM,39.2,30.2,70,30.30,10.0,Calm,Calm,-,N/A,,Clear,0,2012-11-10 12:15:00
7:35 AM,42.8,28.4,57,30.30,10.0,Calm,Calm,-,N/A,,Clear,0,2012-11-10 12:35:00
7:55 AM,42.8,28.4,57,30.31,10.0,Calm,Calm,-,N/A,,Clear,0,2012-11-10 12:55:00
8:15 AM,44.6,32.0,61,30.31,10.0,Calm,Calm,-,N/A,,Clear,0,2012-11-10 13:15:00
8:35 AM,44.6,32.0,61,30.31,10.0,Calm,Calm,-,N/A,,Clear,0,2012-11-10 13:35:00
8:55 AM,48.2,32.0,54,30.31,10.0,Calm,Calm,-,N/A,,Clear,0,2012-11-10 13:55:00
9:15 AM,48.2,32.0,54,30.32,10.0,Calm,Calm,-,N/A,,Clear,0,2012-11-10 14:15:00
9:35 AM,51.8,32.0,47,30.31,10.0,Calm,Calm,-,N/A,,Clear,0,2012-11-10 14:35:00
9:55 AM,53.6,32.0,44,30.31,10.0,South,4.6,-,N/A,,Clear,180,2012-11-10 14:55:00
10:15 AM,55.4,35.6,47,30.31,10.0,SSW,5.8,-,N/A,,Clear,200,2012-11-10 15:15:00
10:35 AM,59.0,32.0,36,30.31,10.0,SSW,9.2,-,N/A,,Clear,210,2012-11-10 15:35:00
10:55 AM,60.8,32.0,34,30.31,10.0,SSW,12.7,-,N/A,,Clear,210,2012-11-10 15:55:00
11:15 AM,60.8,32.0,34,30.30,10.0,SSW,11.5,19.6,N/A,,Clear,210,2012-11-10 16:15:00
11:35 AM,62.6,32.0,32,30.29,10.0,SSW,9.2,-,N/A,,Clear,200,2012-11-10 16:35:00
11:55 AM,62.6,32.0,32,30.28,10.0,SSW,10.4,-,N/A,,Clear,200,2012-11-10 16:55:00
12:15 PM,64.4,32.0,30,30.27,10.0,SSW,11.5,-,N/A,,Clear,200,2012-11-10 17:15:00
12:35 PM,64.4,30.2,28,30.26,10.0,SSW,8.1,-,N/A,,Clear,210,2012-11-10 17:35:00
12:55 PM,66.2,32.0,28,30.26,10.0,SSW,9.2,16.1,N/A,,Clear,200,2012-11-10 17:55:00
1:15 PM,66.2,32.0,28,30.25,10.0,SSW,9.2,-,N/A,,Clear,200,2012-11-10 18:15:00
1:35 PM,66.2,32.0,28,30.25,10.0,SW,9.2,-,N/A,,Clear,220,2012-11-10 18:35:00
1:55 PM,66.2,32.0,28,30.25,10.0,SW,6.9,-,N/A,,Clear,220,2012-11-10 18:55:00
2:15 PM,66.2,32.0,28,30.24,10.0,South,10.4,-,N/A,,Clear,190,2012-11-10 19:15:00
2:35 PM,68.0,32.0,26,30.24,10.0,SSW,13.8,17.3,N/A,,Clear,210,2012-11-10 19:35:00
2:55 PM,68.0,32.0,26,30.24,10.0,SW,9.2,-,N/A,,Clear,220,2012-11-10 19:55:00
3:15 PM,69.8,32.0,25,30.24,10.0,South,11.5,-,N/A,,Clear,190,2012-11-10 20:15:00
3:35 PM,68.0,32.0,26,30.24,10.0,South,6.9,-,N/A,,Clear,190,2012-11-10 20:35:00
3:55 PM,68.0,32.0,26,30.24,10.0,South,9.2,-,N/A,,Clear,190,2012-11-10 20:55:00
4:15 PM,68.0,32.0,26,30.24,10.0,SSW,6.9,-,N/A,,Clear,200,2012-11-10 21:15:00
4:35 PM,66.2,32.0,28,30.24,10.0,South,6.9,-,N/A,,Clear,190,2012-11-10 21:35:00
4:55 PM,64.4,32.0,30,30.24,10.0,South,6.9,-,N/A,,Clear,180,2012-11-10 21:55:00
5:15 PM,62.6,32.0,32,30.24,10.0,South,8.1,-,N/A,,Clear,190,2012-11-10 22:15:00
5:55 PM,62.6,32.0,32,30.25,10.0,South,4.6,-,N/A,,Clear,180,2012-11-10 22:55:00
6:15 PM,60.8,32.0,34,30.25,10.0,South,5.8,-,N/A,,Clear,180,2012-11-10 23:15:00
6:35 PM,60.8,32.0,34,30.26,10.0,South,4.6,-,N/A,,Clear,180,2012-11-10 23:35:00
6:55 PM,60.8,32.0,34,30.27,10.0,Calm,Calm,-,N/A,,Clear,0,2012-11-10 23:55:00
7:15 PM,59.0,32.0,36,30.27,10.0,Calm,Calm,-,N/A,,Clear,0,2012-11-11 00:15:00
7:35 PM,57.2,32.0,38,30.27,10.0,SSE,3.5,-,N/A,,Clear,150,2012-11-11 00:35:00
7:55 PM,57.2,33.8,41,30.28,10.0,SSE,3.5,-,N/A,,Clear,160,2012-11-11 00:55:00
8:15 PM,55.4,33.8,44,30.29,10.0,Calm,Calm,-,N/A,,Clear,0,2012-11-11 01:15:00
8:35 PM,55.4,33.8,44,30.29,10.0,Calm,Calm,-,N/A,,Clear,0,2012-11-11 01:35:00
8:55 PM,53.6,33.8,47,30.29,10.0,Calm,Calm,-,N/A,,Clear,0,2012-11-11 01:55:00
9:15 PM,53.6,33.8,47,30.30,10.0,Calm,Calm,-,N/A,,Clear,0,2012-11-11 02:15:00
9:35 PM,51.8,33.8,50,30.30,10.0,East,3.5,-,N/A,,Clear,100,2012-11-11 02:35:00
9:55 PM,48.2,33.8,58,30.30,10.0,ESE,5.8,-,N/A,,Clear,110,2012-11-11 02:55:00
10:15 PM,50.0,33.8,54,30.30,10.0,Calm,Calm,-,N/A,,Clear,0,2012-11-11 03:15:00
10:35 PM,48.2,33.8,58,30.30,10.0,East,5.8,-,N/A,,Clear,90,2012-11-11 03:35:00
10:55 PM,48.2,33.8,58,30.29,10.0,East,4.6,-,N/A,,Clear,90,2012-11-11 03:55:00
11:15 PM,48.2,33.8,58,30.29,10.0,East,5.8,-,N/A,,Clear,100,2012-11-11 04:15:00
11:55 PM,46.4,33.8,62,30.29,10.0,East,5.8,-,N/A,,Clear,90,2012-11-11 04:55:00